22 maja 2022

Czas Kod Pogoda Temp. Widoczność Chmury Wiatr METAR/SPECI
09:30
V
22 °C 9 km - Var   Var 2 kt METAR LFBD 220730Z AUTO VRB02KT 9000 NSC 22/20 Q1011 NOSIG
09:00
V
22 °C 10 km+ - 160°   160° 3 kt METAR LFBD 220700Z AUTO 16003KT 110V190 CAVOK 22/20 Q1011 NOSIG
08:30
V
21 °C 10 km+ - 130°   130° 4 kt METAR LFBD 220630Z AUTO 13004KT CAVOK 21/19 Q1011 NOSIG
08:00
V
21 °C 10 km+ - 110°   110° 3 kt METAR LFBD 220600Z AUTO 11003KT 060V150 CAVOK 21/19 Q1011 NOSIG
07:30
V
20 °C 8 km - 120°   120° 3 kt METAR LFBD 220530Z AUTO 12003KT 8000 NSC 20/19 Q1011 NOSIG
07:00
I
20 °C 3,9 km - Var   Var 1 kt METAR LFBD 220500Z AUTO VRB01KT 8000 3900 NSC 20/19 Q1012 NOSIG
06:30
V
20 °C 9 km - Var   Var 2 kt METAR LFBD 220430Z AUTO VRB02KT 9000 NSC 20/19 Q1012 NOSIG
06:00
I
20 °C 4 km - 270°   270° 5 kt METAR LFBD 220400Z AUTO 27005KT 240V320 9000 4000 NSC 20/19 Q1013 NOSIG
05:30
M
21 °C 7 km - 280°   280° 4 kt METAR LFBD 220330Z AUTO 28004KT 7000 NSC 21/19 Q1013 NOSIG
05:00
V
21 °C 10 km+ - 260°   260° 2 kt METAR LFBD 220300Z AUTO 26002KT CAVOK 21/19 Q1012 NOSIG
04:30
V
21 °C 10 km+ - 260°   260° 2 kt METAR LFBD 220230Z AUTO 26002KT CAVOK 21/19 Q1013 NOSIG
04:00
V
21 °C 10 km+ - 240°   240° 5 kt METAR LFBD 220200Z AUTO 24005KT CAVOK 21/19 Q1013 NOSIG
03:30
V
22 °C 10 km+ - Var   000° 0 kt METAR LFBD 220130Z AUTO 00000KT CAVOK 22/19 Q1013 NOSIG
03:00
V
22 °C 10 km+ - 040°   040° 5 kt METAR LFBD 220100Z AUTO 04005KT CAVOK 22/19 Q1012 NOSIG
02:30
V
22 °C 10 km+ - Var   Var 2 kt METAR LFBD 220030Z AUTO VRB02KT CAVOK 22/19 Q1013 NOSIG
02:00
V
22 °C 10 km+ - 310°   310° 2 kt METAR LFBD 220000Z AUTO 31002KT CAVOK 22/19 Q1013 NOSIG
01:30
V
22 °C 10 km+ - Var   Var 2 kt METAR LFBD 212330Z AUTO VRB02KT CAVOK 22/19 Q1013 NOSIG
01:00
V
22 °C 10 km+ - Var   000° 0 kt METAR LFBD 212300Z AUTO 00000KT CAVOK 22/19 Q1014 NOSIG
00:30
V
23 °C 10 km+ - Var   000° 0 kt METAR LFBD 212230Z AUTO 00000KT CAVOK 23/19 Q1014 NOSIG
00:00
V
24 °C 10 km+ - 030°   030° 3 kt METAR LFBD 212200Z AUTO 03003KT CAVOK 24/19 Q1014 NOSIG

21 maja 2022

Czas Kod Pogoda Temp. Widoczność Chmury Wiatr METAR/SPECI
23:30
V
25 °C 10 km+ - 010°   010° 4 kt METAR LFBD 212130Z AUTO 01004KT 330V090 CAVOK 25/19 Q1014 NOSIG
23:00
V
25 °C 10 km+ - 080°   080° 3 kt METAR LFBD 212100Z AUTO 08003KT 040V120 CAVOK 25/19 Q1014 NOSIG
22:30
V
26 °C 10 km+ - 050°   050° 3 kt METAR LFBD 212030Z AUTO 05003KT 020V080 CAVOK 26/20 Q1014 NOSIG
22:00
V
27 °C 10 km+ - 030°   030° 4 kt METAR LFBD 212000Z AUTO 03004KT CAVOK 27/20 Q1014 NOSIG
21:30
V
28 °C 10 km+ - 030°   030° 5 kt METAR LFBD 211930Z AUTO 03005KT CAVOK 28/19 Q1014 NOSIG
21:00
V
28 °C 10 km+ - 080°   080° 4 kt METAR LFBD 211900Z AUTO 08004KT 030V110 CAVOK 28/19 Q1014 NOSIG
20:30
V
29 °C 10 km+ - 040°   040° 5 kt METAR LFBD 211830Z AUTO 04005KT 020V080 CAVOK 29/19 Q1015 NOSIG
20:00
V
29 °C 10 km+ - 020°   020° 6 kt METAR LFBD 211800Z AUTO 02006KT CAVOK 29/19 Q1015 NOSIG
19:30
V
30 °C 10 km+ - 030°   030° 7 kt METAR LFBD 211730Z AUTO 03007KT CAVOK 30/19 Q1015 NOSIG
19:00
V
30 °C 10 km+ - 020°   020° 6 kt METAR LFBD 211700Z AUTO 02006KT CAVOK 30/18 Q1015 NOSIG
18:30
V
31 °C 10 km+ - Var   Var 3 kt METAR LFBD 211630Z AUTO VRB03KT CAVOK 31/18 Q1015 NOSIG
18:00
V
31 °C 10 km+ - Var   Var 3 kt METAR LFBD 211600Z AUTO VRB03KT CAVOK 31/18 Q1015 NOSIG
17:30
V
32 °C 10 km+ - 110°   110° 4 kt METAR LFBD 211530Z AUTO 11004KT 090V160 CAVOK 32/17 Q1015 NOSIG
17:00
V
31 °C 10 km+ - 120°   120° 5 kt METAR LFBD 211500Z AUTO 12005KT 090V170 CAVOK 31/18 Q1016 NOSIG
16:30
V
31 °C 10 km+ - 120°   120° 5 kt METAR LFBD 211430Z AUTO 12005KT 080V180 CAVOK 31/19 Q1016 NOSIG
16:00
V
30 °C 10 km+ - 090°   090° 5 kt METAR LFBD 211400Z AUTO 09005KT 040V140 CAVOK 30/18 Q1016 NOSIG
15:30
V
30 °C 10 km+ - 100°   100° 7 kt METAR LFBD 211330Z AUTO 10007KT 070V140 9999 FEW007 30/18 Q1017 NOSIG
15:00
V
30 °C 10 km+ - 100°   100° 6 kt METAR LFBD 211300Z AUTO 10006KT 060V160 CAVOK 30/18 Q1017 NOSIG
14:30
V
29 °C 10 km+ - 090°   090° 5 kt METAR LFBD 211230Z AUTO 09005KT 030V140 CAVOK 29/18 Q1018 NOSIG
14:00
V
28 °C 10 km+ - 080°   080° 6 kt METAR LFBD 211200Z AUTO 08006KT 040V120 CAVOK 28/18 Q1018 NOSIG
13:30
V
27 °C 10 km+ 18.000 ft 090°   090° 8 kt METAR LFBD 211130Z AUTO 09008KT 060V120 9999 FEW010 BKN180 27/17 Q1018 NOSIG
13:00
V
27 °C 10 km+ - 070°   070° 7 kt METAR LFBD 211100Z AUTO 07007KT 040V110 CAVOK 27/17 Q1018 NOSIG
12:30
V
26 °C 10 km+ - 060°   060° 8 kt METAR LFBD 211030Z AUTO 06008KT 010V100 CAVOK 26/17 Q1019 NOSIG
12:00
V
25 °C 10 km+ - 030°   030° 6 kt METAR LFBD 211000Z AUTO 03006KT 360V060 CAVOK 25/17 Q1019 NOSIG
11:30
V
24 °C 10 km+ - 050°   050° 7 kt METAR LFBD 210930Z AUTO 05007KT 020V090 CAVOK 24/17 Q1019 NOSIG
11:00
V
23 °C 10 km+ - 050°   050° 5 kt METAR LFBD 210900Z AUTO 05005KT 360V090 CAVOK 23/15 Q1020 NOSIG
10:30
V
22 °C 10 km+ - 050°   050° 4 kt METAR LFBD 210830Z AUTO 05004KT 010V090 CAVOK 22/15 Q1020 NOSIG
10:00
V
22 °C 10 km+ - 060°   060° 3 kt METAR LFBD 210800Z AUTO 06003KT 360V100 CAVOK 22/15 Q1020 NOSIG
09:30
V
21 °C 10 km+ - 060°   060° 3 kt METAR LFBD 210730Z AUTO 06003KT 020V100 CAVOK 21/14 Q1020 NOSIG
09:00
V
19 °C 10 km+ - 040°   040° 4 kt METAR LFBD 210700Z AUTO 04004KT 010V070 CAVOK 19/13 Q1020 NOSIG
08:30
V
18 °C 10 km+ - 050°   050° 4 kt METAR LFBD 210630Z AUTO 05004KT CAVOK 18/13 Q1020 NOSIG
08:00
V
17 °C 10 km+ - 020°   020° 3 kt METAR LFBD 210600Z AUTO 02003KT CAVOK 17/13 Q1021 BECMG 08010KT
07:30
V
16 °C 10 km+ - 030°   030° 4 kt METAR LFBD 210530Z AUTO 03004KT CAVOK 16/13 Q1021 NOSIG
07:00
V
15 °C 10 km+ - 030°   030° 4 kt METAR LFBD 210500Z AUTO 03004KT CAVOK 15/13 Q1021 NOSIG
06:30
V
15 °C 10 km+ - 030°   030° 4 kt METAR LFBD 210430Z AUTO 03004KT CAVOK 15/13 Q1021 NOSIG
06:00
V
15 °C 10 km+ - 030°   030° 3 kt METAR LFBD 210400Z AUTO 03003KT CAVOK 15/13 Q1021 NOSIG
05:30
V
15 °C 10 km+ - 030°   030° 4 kt METAR LFBD 210330Z AUTO 03004KT 9999 SCT043 15/13 Q1021 NOSIG
05:00
V
15 °C 10 km+ - 010°   010° 3 kt METAR LFBD 210300Z AUTO 01003KT 9999 FEW044 SCT190 15/13 Q1022 NOSIG
04:30
V
15 °C 10 km+ 20.000 ft 010°   010° 3 kt METAR LFBD 210230Z AUTO 01003KT 9999 SCT045 BKN200 15/13 Q1022 NOSIG
04:00
V
15 °C 10 km+ - Var   Var 2 kt METAR LFBD 210200Z AUTO VRB02KT CAVOK 15/13 Q1022 NOSIG
03:30
V
16 °C 10 km+ - 360°   360° 3 kt METAR LFBD 210130Z AUTO 36003KT 340V050 CAVOK 16/13 Q1023 NOSIG
03:00
V
16 °C 10 km+ - Var   Var 3 kt METAR LFBD 210100Z AUTO VRB03KT CAVOK 16/13 Q1023 NOSIG
02:30
V
16 °C 10 km+ - 360°   360° 4 kt METAR LFBD 210030Z AUTO 36004KT 330V070 CAVOK 16/13 Q1023 NOSIG
02:00
V
16 °C 10 km+ - Var   Var 2 kt METAR LFBD 210000Z AUTO VRB02KT CAVOK 16/13 Q1024 NOSIG
01:30
V
16 °C 10 km+ - Var   Var 3 kt METAR LFBD 202330Z AUTO VRB03KT CAVOK 16/12 Q1024 NOSIG
01:00
V
16 °C 10 km+ - 360°   360° 5 kt METAR LFBD 202300Z AUTO 36005KT 330V060 CAVOK 16/12 Q1024 NOSIG
00:30
V
17 °C 10 km+ - 340°   340° 7 kt METAR LFBD 202230Z AUTO 34007KT 9999 FEW031 17/12 Q1024 NOSIG
00:00
V
17 °C 10 km+ 3.100 ft 320°   320° 4 kt METAR LFBD 202200Z AUTO 32004KT 9999 BKN031 17/12 Q1024 NOSIG

20 maja 2022

Czas Kod Pogoda Temp. Widoczność Chmury Wiatr METAR/SPECI
23:30
V
17 °C 10 km+ - 310°   310° 5 kt METAR LFBD 202130Z AUTO 31005KT 9999 FEW033 17/12 Q1024 NOSIG
23:00
V
18 °C 10 km+ - 300°   300° 3 kt METAR LFBD 202100Z AUTO 30003KT 270V340 CAVOK 18/13 Q1024 NOSIG
22:30
V
19 °C 10 km+ - 280°   280° 4 kt METAR LFBD 202030Z AUTO 28004KT CAVOK 19/13 Q1024 NOSIG
22:00
V
20 °C 10 km+ - 300°   300° 5 kt METAR LFBD 202000Z AUTO 30005KT 280V360 CAVOK 20/13 Q1024 NOSIG
21:30
V
21 °C 10 km+ - 310°   310° 4 kt METAR LFBD 201930Z AUTO 31004KT 280V020 CAVOK 21/13 Q1024 NOSIG
21:00
V
21 °C 10 km+ - 300°   300° 6 kt METAR LFBD 201900Z AUTO 30006KT 270V340 CAVOK 21/13 Q1023 NOSIG
20:30
V
23 °C 10 km+ - 310°   310° 7 kt METAR LFBD 201830Z AUTO 31007KT 280V350 CAVOK 23/13 Q1023 NOSIG
20:00
V
23 °C 10 km+ - 320°   320° 7 kt METAR LFBD 201800Z AUTO 32007KT 290V020 CAVOK 23/13 Q1023 NOSIG
19:30
V
24 °C 10 km+ - 310°   310° 8 kt METAR LFBD 201730Z AUTO 31008KT CAVOK 24/14 Q1023 NOSIG
19:00
V
25 °C 10 km+ - 310°   310° 8 kt METAR LFBD 201700Z AUTO 31008KT CAVOK 25/14 Q1023 NOSIG
18:30
V
25 °C 10 km+ - 310°   310° 7 kt METAR LFBD 201630Z AUTO 31007KT 270V360 9999 FEW038 25/15 Q1023 NOSIG
18:00
V
25 °C 10 km+ - 320°   320° 6 kt METAR LFBD 201600Z AUTO 32006KT 280V360 9999 SCT034 25/15 Q1023 NOSIG
17:30
V
25 °C 10 km+ - 320°   320° 4 kt METAR LFBD 201530Z AUTO 32004KT 270V020 9999 SCT032 25/16 Q1023 NOSIG
17:00
V
25 °C 10 km+ 3.000 ft 280°   280° 6 kt METAR LFBD 201500Z AUTO 28006KT 220V350 9999 BKN030 25/17 Q1023 NOSIG
16:30
V
25 °C 10 km+ 24.000 ft 300°   300° 6 kt METAR LFBD 201430Z AUTO 30006KT 260V350 9999 SCT028 BKN240 25/17 Q1023 NOSIG
16:00
V
24 °C 10 km+ - 270°   270° 6 kt METAR LFBD 201400Z AUTO 27006KT 200V340 9999 FEW027 SCT240 24/17 Q1023 NOSIG
15:30
V
23 °C 10 km+ 22.000 ft 300°   300° 9 kt METAR LFBD 201330Z AUTO 30009KT 270V330 9999 SCT027 BKN220 23/16 Q1023 NOSIG
15:00
M
23 °C 10 km+ 2.600 ft 300°   300° 7 kt METAR LFBD 201300Z AUTO 30007KT 250V010 9999 BKN026 BKN200 BKN220 23/16 Q1023 NOSIG
14:30
M
23 °C 10 km+ 2.100 ft 280°   280° 9 kt METAR LFBD 201230Z AUTO 28009KT 240V310 9999 BKN021 BKN200 BKN230 23/17 Q1022 NOSIG
14:00
M
22 °C 10 km+ 1.700 ft 260°   260° 9 kt METAR LFBD 201200Z AUTO 26009KT 9999 BKN017 OVC210 22/18 Q1022 NOSIG
13:30
M
22 °C 10 km+ 1.700 ft 250°   250° 9 kt METAR LFBD 201130Z AUTO 25009KT 9999 BKN017 BKN200 22/18 Q1022 NOSIG
13:00
M
22 °C 10 km+ 1.600 ft 240°   240° 7 kt METAR LFBD 201100Z AUTO 24007KT 210V270 9999 BKN016 BKN210 22/18 Q1022 NOSIG
12:30
M
22 °C 10 km+ 1.600 ft 250°   250° 7 kt METAR LFBD 201030Z AUTO 25007KT 9999 BKN016 BKN180 BKN210 22/18 Q1021 NOSIG
12:00
M
22 °C 10 km+ 1.500 ft 250°   250° 8 kt METAR LFBD 201000Z AUTO 25008KT 9999 BKN015 BKN210 22/18 Q1021 NOSIG
11:30
M
22 °C 10 km+ 1.400 ft 250°   250° 8 kt METAR LFBD 200930Z AUTO 25008KT 9999 BKN014 OVC220 22/19 Q1021 BECMG NSC
11:00
M
22 °C 10 km+ 1.300 ft 250°   250° 9 kt METAR LFBD 200900Z AUTO 25009KT 9999 BKN013 OVC210 22/18 Q1021 BECMG NSC
10:30
M
22 °C 10 km+ 1.300 ft 230°   230° 9 kt METAR LFBD 200830Z AUTO 23009KT 9999 BKN013 BKN210 22/19 Q1020 BECMG 30010KT NSC
10:00
V
22 °C 10 km+ 21.000 ft 220°   220° 7 kt METAR LFBD 200800Z AUTO 22007KT 9999 SCT013 OVC210 22/18 Q1020 TEMPO BKN006
09:30
V
21 °C 10 km+ - 200°   200° 7 kt METAR LFBD 200730Z AUTO 20007KT 170V240 CAVOK 21/18 Q1019 TEMPO BKN006
09:00
V
20 °C 10 km+ - 180°   180° 6 kt METAR LFBD 200700Z AUTO 18006KT CAVOK 20/17 Q1019 TEMPO BKN006
Starsze dane

Pobierz naszą aplikację

Łatwy dostęp do całej pogody lotniczej na telefonie komórkowym i tablecie.
Z wieloma funkcjami niedostępnymi na stronie internetowej, takimi jak wsparcie offline i osobista lista lotnisk.

My i osoby trzecie śledzimy twoje zachowanie w internecie na naszej stronie za pomocą plików cookie. Jeśli kontynuujesz, zakładamy, że zgadzasz się z naszą polityką plików cookie. Dowiedz się więcej